CAPE
1 0 0 0 0 0 0 0 1 13 8 2 0 3 2 1 13 33 9 6 0 1 1 1 0 0 0 0 2 0 2 0 5 24 2 0 0 0 1 0 10 0 1 1 1 0 0 0 0 0 0 0 0 0
0 3 3 1 0 0 0 0 0 3 1 0 1 1 7 6 13 24 0 4 4 1 0 0 0 0 0 0 0 1 1 2 2 3 8 0 0 0 0 1 3 3 0 0 0 0 0 0 1 0 0 0 0 0
0 1 2 5 11 0 0 0 0 0 0 0 0 0 3 3 7 20 1 0 0 0 0 0 0 0 0 0 0 1 3 2 1 2 1 1 0 0 0 0 10 0 0 2 3 0 0 0 0 0 0 0 0 0
1 1 1 2 8 7 0 0 0 0 0 0 0 1 3 5 5 14 1 0 1 0 0 1 2 1 0 0 0 0 2 1 0 1 0 0 0 0 0 1 1 2 0 0 2 1 0 0 0 0 0 0 0 0
8 6 7 3 9 13 7 0 0 0 1 0 1 0 0 2 7 3 0 0 0 0 0 3 1 3 0 1 4 5 4 5 0 0 0 0 0 0 0 0 0 0 0 2 1 0 0 0 0 0 0 0 0 0
14 15 14 17 7 7 5 1 0 0 0 0 0 0 4 4 17 0 0 0 0 0 4 0 2 0 2 5 8 13 9 6 0 0 0 0 1 3 0 0 0 0 0 0 5 1 0 0 0 0 0 0 0 0
14 2 5 16 21 9 3 1 0 0 4 5 0 6 6 10 2 0 0 0 0 1 0 0 0 0 1 5 7 10 15 4 0 0 0 2 0 5 0 1 0 0 0 0 18 0 0 0 0 0 0 0 0 0
18 5 6 13 7 8 1 0 0 0 5 10 11 12 27 10 0 0 1 4 4 0 0 0 1 0 1 1 1 1 3 1 0 0 0 0 5 0 0 0 0 0 0 0 0 0 0 0 0 0 0 0 0 0
7 7 15 16 9 1 0 0 0 8 12 13 1 0 0 0 0 2 3 0 0 0 0 0 0 1 5 6 9 1 0 1 0 0 0 1 0 1 0 0 0 0 0 0 0 1 0 0 0 0 0 0 0 0
0 0 8 7 0 0 1 6 1 0 1 1 0 0 0 0 2 0 0 0 0 0 0 0 1 0 1 6 1 6 0 2 6 4 1 1 0 0 0 0 0 0 0 0 0 0 0 0 0 0 0 0 0 1
0 12 11 12 3 5 1 1 0 0 0 0 0 0 2 0 2 0 0 0 0 0 0 3 2 0 0 0 2 3 5 1 6 1 2 2 0 0 0 0 0 0 0 0 0 0 0 0 0 0 0 0 0 0
0 2 6 6 5 5 3 0 0 0 0 0 0 0 0 1 0 0 0 1 0 0 1 2 4 3 3 3 1 0 2 0 1 0 2 0 0 0 0 0 0 0 0 0 0 0 0 0 0 0 0 0 0 0
7 3 0 0 0 0 0 0 0 0 0 0 0 0 0 0 0 0 0 0 0 0 1 2 3 6 0 2 0 2 2 2 0 0 0 0 0 0 0 0 0 0 1 1 1 0 0 0 0 0 0 0 1 1
4 1 0 0 0 0 0 0 0 0 0 0 0 0 0 0 0 0 0 0 0 0 2 7 3 2 2 0 0 0 0 1 1 0 0 0 0 0 0 1 0 0 1 0 0 0 0 0 0 0 0 0 0 0
0 0 0 0 0 0 0 0 0 0 0 0 0 0 0 0 0 0 0 0 0 1 5 3 0 2 1 0 1 1 1 0 0 0 0 0 0 1 0 1 1 1 1 0 0 0 0 0 0 0 0 0 0 0
0 0 0 0 0 0 0 0 0 0 0 0 0 0 0 0 0 0 0 0 0 1 4 0 0 1 1 1 2 1 0 0 0 0 0 1 1 0 2 1 2 3 3 0 0 0 0 0 0 0 0 0 0 0
0 0 0 0 0 0 0 0 0 0 0 0 0 0 0 0 0 2 2 1 1 3 2 1 0 0 1 2 1 1 0 0 0 0 1 0 0 2 3 1 1 1 2 0 0 0 0 0 0 0 0 0 0 0
0 0 0 0 0 0 0 0 0 0 0 0 0 0 0 0 0 3 6 8 6 4 6 3 1 1 1 0 0 0 0 0 1 1 1 0 1 3 3 2 1 0 0 0 0 0 0 0 0 0 0 0 0 0
2 0 0 0 0 0 0 0 0 0 0 0 0 0 0 0 0 1 2 2 6 18 18 1 0 2 2 0 0 0 0 0 1 1 1 3 3 1 1 1 0 0 0 0 0 0 0 0 0 0 0 0 0 0
0 0 0 0 0 0 0 0 0 0 0 0 2 3 5 4 1 1 1 0 0 4 3 0 0 5 1 0 0 0 0 0 0 1 2 3 2 0 0 0 0 0 0 0 0 0 0 0 0 0 0 0 0 0
0 0 0 0 0 0 0 0 0 0 0 0 3 2 5 2 3 2 5 0 3 3 1 0 0 0 0 0 1 1 0 1 1 0 1 1 2 2 2 1 0 0 0 0 0 0 0 0 0 0 0 1 0 1
0 0 0 0 0 0 0 0 0 0 0 1 1 5 2 1 3 3 1 1 2 2 0 0 0 0 0 0 0 0 1 1 1 0 0 1 1 2 3 3 2 2 1 1 0 0 0 0 0 0 0 0 0 0
0 0 0 0 0 0 0 0 0 0 0 0 2 2 0 0 3 0 2 3 1 0 0 0 0 0 0 0 0 0 0 0 0 0 0 1 3 3 2 1 1 1 0 0 0 0 0 0 0 0 0 1 1 1
0 0 0 0 0 0 0 0 2 8 7 2 1 1 0 1 0 2 1 0 0 0 0 0 0 0 0 0 0 0 0 0 0 0 0 0 0 1 1 0 0 1 0 0 0 0 0 0 0 0 0 0 0 0
0 0 0 0 0 0 0 0 0 5 0 0 1 0 0 1 1 0 0 0 0 0 0 0 0 0 0 0 1 2 0 0 0 0 1 0 0 2 2 0 0 0 0 0 0 0 0 0 0 0 0 0 0 0
0 0 0 0 0 0 0 0 0 0 0 0 0 0 1 0 0 0 0 0 0 0 0 0 0 0 0 0 0 1 0 0 0 0 0 0 0 1 2 2 1 0 0 0 0 0 0 0 0 0 0 0 0 0
0 0 0 0 0 0 0 0 0 0 0 0 0 0 0 0 0 0 0 0 0 0 0 1 1 0 0 0 0 0 0 0 0 0 0 0 0 0 0 0 0 0 0 0 0 0 0 0 0 0 0 0 0 0
0 0 0 0 0 0 0 0 0 0 0 0 0 0 0 0 0 0 0 0 0 0 0 0 0 0 1 0 0 0 0 0 0 0 0 0 0 0 0 0 0 0 0 0 0 0 0 0 0 0 0 0 0 0
1 0 0 0 0 0 0 0 0 0 0 0 0 0 0 0 0 0 0 1 2 0 0 0 0 0 2 1 1 0 0 0 0 0 0 0 0 0 0 0 0 0 0 0 0 0 0 0 0 0 0 0 0 0
0 0 0 0 0 0 0 0 0 0 0 0 0 0 0 0 1 0 0 4 3 2 1 1 2 4 0 0 0 0 0 0 0 0 0 0 0 0 0 0 0 0 0 0 0 0 0 0 0 0 0 0 0 0
0 1 0 0 0 0 0 0 0 0 0 0 0 0 0 0 1 0 3 5 2 0 0 0 4 4 0 0 0 0 0 0 0 0 0 0 0 0 0 0 0 0 0 0 0 0 0 0 0 0 0 0 0 0
0 2 0 0 0 2 2 0 0 0 0 0 0 0 0 0 0 0 0 1 3 1 2 2 0 0 1 0 0 0 0 0 0 0 0 0 0 0 0 0 0 0 0 0 0 0 0 0 0 0 0 0 0 0
0 0 0 0 0 0 2 1 0 0 0 0 0 0 0 0 0 0 2 3 2 3 0 0 0 0 0 0 0 0 0 0 0 0 0 0 0 0 0 0 0 0 0 0 0 0 0 0 0 0 0 0 0 0
CIN
0 0 0 0 0 0 0 -11 -2 -2 -1 -1 0 -6 -3 -7 -3 0 -1 -11 -1 0 0 0 0 0 0 0 -1 0 -4 0 -12 -1 0 0 0 0 -1 0 -2 0 0 0 0 0 0 0 0 0 0 0 0 0
0 0 -1 -1 0 0 0 0 0 -5 -5 -5 -5 -5 -5 -5 -4 -1 -1 -6 -8 0 0 0 0 0 0 0 0 0 0 0 0 -3 -1 0 0 0 0 0 -3 -8 0 0 0 0 0 0 -2 0 0 0 0 0
0 0 0 0 0 0 0 0 0 0 0 0 -1 0 -5 -5 -6 -2 0 0 0 0 0 0 0 0 0 0 0 0 0 0 0 0 0 0 0 0 0 0 -3 0 0 -5 -8 0 0 0 0 0 0 0 0 0
0 0 -1 -2 -3 0 0 0 0 0 0 0 0 -4 -6 -6 -7 -1 0 0 -5 0 0 0 0 0 0 0 0 0 0 0 0 0 0 0 0 0 0 0 0 -1 0 0 -1 -1 0 0 0 0 0 0 0 0
-1 0 -3 -3 -1 0 -4 -2 0 0 -10 -3 -3 -2 0 -9 -13 -1 0 0 -6 0 0 0 0 0 0 0 0 0 0 0 0 0 0 0 0 0 0 0 0 0 0 -2 0 0 0 0 0 0 0 0 0 0
0 0 0 0 -2 0 -7 -8 0 0 0 0 0 0 -5 0 -4 0 0 0 0 -1 -7 -8 0 0 0 0 0 0 0 0 0 0 0 0 -1 0 0 -1 0 0 0 0 -6 -7 0 0 0 0 0 0 0 0
0 -2 -3 0 0 -1 -5 -7 0 0 -12 -12 -5 -5 -2 -6 -1 0 0 0 -3 -1 -1 -3 -1 0 0 0 0 0 0 -1 0 0 0 -1 -1 -3 -1 -1 0 0 0 0 -13 0 0 0 0 0 0 0 0 0
0 0 -6 -1 -1 -3 -11 0 0 0 -16 -14 -12 -12 -8 -2 0 0 -1 -1 -2 0 -1 0 0 0 0 0 -1 0 0 -2 -1 -4 0 0 -1 0 -1 0 0 0 0 0 -11 -11 0 0 0 0 0 0 0 0
-11 -8 -2 -3 -6 -6 0 0 -3 -7 -6 -4 -1 0 0 0 0 0 -1 -1 -3 -1 0 0 0 0 0 -1 0 0 0 0 0 0 -1 -1 -1 -1 0 0 0 0 0 0 0 -10 0 0 0 0 0 0 0 0
-15 -1 -8 -10 -1 -1 -8 -6 -2 0 0 -1 0 0 0 0 0 0 0 0 0 0 0 0 -1 0 0 0 -1 0 -1 -3 -4 0 0 0 0 0 0 0 0 0 0 0 0 0 0 0 0 0 0 0 0 0
0 0 0 -3 -4 -14 -8 0 0 0 0 0 0 0 0 0 0 0 0 0 0 0 0 0 -1 0 -1 0 -1 0 -2 -4 -13 -2 0 0 0 0 0 0 0 0 0 0 0 0 -1 0 0 0 0 0 0 0
0 -2 0 0 0 0 -1 0 0 0 0 0 0 0 0 0 0 0 0 0 0 0 0 0 0 0 0 0 -1 0 -1 0 0 0 0 0 0 0 0 0 0 0 0 0 0 0 -1 0 0 0 0 0 0 0
-2 -1 -1 -1 -1 -1 0 0 0 0 0 0 0 0 0 0 0 0 0 0 0 0 0 0 0 0 0 -1 0 0 0 0 -1 0 -1 0 0 0 0 0 0 0 0 0 0 0 0 0 0 0 0 0 0 0
-4 -5 0 0 0 0 0 0 0 0 0 0 0 0 0 0 0 0 0 0 0 0 0 0 0 0 0 0 0 0 -1 0 0 0 0 0 0 0 0 0 0 0 0 0 0 0 0 0 0 0 0 0 0 0
0 0 0 0 0 0 0 0 0 0 0 0 0 0 0 0 0 0 0 0 0 -1 0 0 0 0 0 0 -1 -1 0 -1 -1 0 -1 0 0 0 0 -1 0 0 0 0 0 0 0 0 0 0 0 0 0 0
0 0 0 0 0 0 0 0 0 0 0 0 0 0 0 0 0 0 0 0 -1 0 0 0 0 0 0 0 0 0 -1 0 0 0 0 0 0 0 0 0 0 0 0 0 0 0 0 0 0 0 0 0 0 0
0 0 0 0 0 0 0 0 0 0 0 0 0 0 0 0 0 0 0 0 -1 0 -1 -1 0 0 0 0 0 -1 0 0 0 0 0 0 0 0 0 0 0 0 0 0 0 0 0 0 0 0 0 0 0 0
0 0 0 0 0 0 0 0 0 0 0 0 0 0 0 0 0 0 0 0 0 0 0 -1 0 0 0 0 -1 0 0 0 0 0 0 0 0 0 0 0 0 0 0 0 0 0 0 0 0 0 0 0 0 0
0 0 0 0 0 0 0 0 0 0 0 0 0 0 -2 -1 -1 0 -3 -1 -3 0 0 -3 0 0 -1 0 0 0 0 0 0 0 0 0 0 0 0 0 0 0 0 0 0 0 0 0 0 0 0 0 0 0
0 0 0 0 0 0 0 0 0 0 0 0 0 0 -1 -2 0 0 -1 -3 0 0 0 -2 -1 -12 -18 0 0 0 0 -1 0 0 0 0 0 0 0 0 0 0 0 0 0 0 0 0 0 0 0 0 0 0
0 0 0 0 0 0 0 0 0 0 0 0 0 0 0 0 -1 0 0 0 0 0 0 0 0 0 0 0 0 0 0 0 0 0 0 0 0 0 0 0 0 0 0 0 0 0 0 0 0 0 0 0 0 0
0 0 0 0 0 0 0 0 0 0 0 0 0 0 0 -1 -4 0 0 0 0 -1 0 0 0 0 0 0 0 0 0 0 0 0 0 0 0 0 0 0 0 0 0 0 0 0 0 0 0 0 0 0 0 0
-1 0 0 0 0 0 0 0 0 0 0 0 0 0 0 0 -3 0 0 0 -1 0 0 0 0 0 0 0 0 0 0 0 0 0 0 0 0 0 0 0 0 0 0 0 0 0 0 0 0 0 0 0 0 0
-1 0 0 0 0 0 0 0 0 0 0 -1 0 -1 -1 0 0 0 -1 0 0 0 0 0 0 0 0 0 0 0 0 0 0 0 0 0 0 0 0 0 0 0 -1 0 0 0 0 0 0 0 0 0 0 0
0 0 0 0 0 0 0 0 -1 0 -1 0 -1 0 0 0 0 0 0 0 0 0 0 0 0 0 0 0 0 0 0 0 0 0 0 0 0 0 0 0 0 0 0 0 0 0 0 0 0 0 0 0 0 0
0 0 0 0 0 0 0 0 0 0 0 0 0 0 0 0 0 0 0 0 0 0 0 0 0 0 0 0 0 0 0 0 0 0 0 0 0 0 0 0 0 0 0 0 0 0 0 0 0 0 0 0 0 0
0 0 0 0 0 0 0 0 0 0 0 0 0 0 0 0 0 0 0 0 0 0 0 0 0 0 0 0 0 0 0 0 0 0 0 0 0 0 0 0 0 0 0 0 0 0 0 0 0 0 0 0 0 0
0 0 0 0 0 0 0 0 0 0 0 0 0 0 0 0 0 0 0 0 0 0 0 0 0 -1 0 0 0 0 0 0 0 0 0 0 0 0 0 0 0 0 0 0 0 0 0 0 0 0 0 0 0 0
0 0 0 0 0 0 0 0 0 0 0 0 0 0 0 0 0 0 0 0 0 0 0 0 0 0 0 0 0 0 0 0 0 0 0 0 0 0 0 0 0 0 0 0 0 0 0 0 0 0 0 0 0 0
0 -1 0 0 0 0 0 0 0 0 0 0 0 0 0 0 0 0 0 0 0 0 0 0 0 0 0 0 0 0 0 0 0 0 0 0 0 0 0 0 0 0 0 0 0 0 0 0 0 0 0 0 0 0
0 0 0 0 0 0 0 0 0 0 0 0 0 0 0 0 0 0 0 0 0 0 0 0 0 0 0 0 0 0 0 0 0 0 0 0 0 0 0 0 0 0 0 0 0 0 0 0 0 0 0 0 0 0
0 0 0 0 0 0 0 0 0 0 0 0 0 0 0 0 0 0 0 0 0 0 0 0 0 0 0 0 0 0 0 0 0 0 0 0 0 0 0 0 0 0 0 0 0 0 0 0 0 0 0 0 0 0
0 0 0 -2 0 0 0 0 0 0 0 0 0 0 0 0 0 0 0 0 0 0 0 0 0 0 0 0 0 0 0 0 0 0 0 0 0 0 0 0 0 0 0 0 0 0 0 0 0 0 0 0 0 0
Wind_Speed
23 23 23 24 23 23 23 24 24 22 19 19 20 22 21 22 24 23 29 25 31 36 35 34 33 35 35 38 48 38 36 39 38 44 44 45 45 43 47 53 44 42 41 46 47 48 56 37 37 43 43 42 39 34
24 23 23 23 24 23 23 25 27 28 23 22 21 20 21 21 23 23 26 20 20 33 32 26 28 27 28 26 33 36 39 37 39 45 48 46 46 43 48 59 43 50 46 46 45 52 42 34 37 38 40 41 39 35
30 28 26 25 24 26 26 22 23 26 27 27 28 26 25 25 27 27 23 22 19 28 36 40 41 27 23 23 21 37 34 31 31 30 36 38 47 44 50 54 50 41 40 49 46 47 46 41 38 34 32 35 33 30
34 31 29 28 27 26 25 26 24 24 24 21 22 24 25 25 27 27 23 23 21 22 38 37 23 29 27 25 25 28 32 29 30 30 38 38 41 31 40 40 42 41 38 45 49 48 44 37 35 36 36 31 30 30
32 33 32 32 30 29 26 24 24 25 25 23 21 20 19 18 18 19 20 22 22 25 31 31 26 26 24 26 28 29 30 32 36 40 40 46 39 40 38 39 47 37 41 45 47 35 36 37 29 30 35 36 35 37
22 29 32 33 33 33 21 12 14 19 18 18 20 16 12 14 15 14 20 22 18 17 24 31 23 22 23 23 25 28 30 30 32 35 37 35 35 38 46 49 40 39 37 36 37 30 31 32 34 33 35 35 34 36
15 15 19 20 5 3 4 6 5 5 3 5 6 6 10 14 12 19 19 12 11 11 20 25 27 21 20 22 25 27 29 32 35 37 39 40 40 39 43 52 45 40 40 38 35 38 41 37 38 35 34 33 34 35
29 27 25 19 13 5 1 3 5 3 2 2 3 7 9 9 4 13 12 10 7 8 16 24 24 21 18 22 24 25 27 30 33 37 39 41 38 39 47 46 49 46 46 45 40 38 43 44 40 37 36 34 34 34
33 32 31 29 26 19 10 5 4 6 7 9 15 13 2 5 9 8 8 4 5 11 15 17 20 25 14 19 21 23 25 32 30 35 37 35 41 45 45 42 43 45 40 39 37 36 40 41 41 39 37 35 33 29
32 30 30 29 28 28 24 19 21 21 22 20 7 1 4 6 11 5 8 8 10 14 14 16 13 14 12 14 18 22 23 29 33 31 26 35 45 47 45 43 45 41 39 40 42 41 39 40 37 35 31 30 26 23
30 31 33 32 31 32 32 30 21 20 10 4 4 3 6 17 17 12 8 9 10 11 12 14 15 14 13 16 19 20 23 24 29 26 27 31 35 30 27 28 29 29 30 31 32 34 32 33 33 30 26 24 20 19
26 28 30 30 31 32 32 29 2 11 14 15 4 8 10 10 11 10 10 9 11 12 12 11 11 12 11 13 15 16 20 18 25 15 22 29 25 23 24 25 27 28 28 28 24 26 23 23 21 19 17 15 13 11
21 20 19 20 27 33 26 16 8 5 3 4 7 10 11 12 11 11 11 14 15 11 10 8 10 12 13 13 13 12 15 17 16 18 21 22 23 25 26 26 24 22 20 18 17 14 14 14 12 10 10 9 9 9
15 15 15 15 23 18 1 3 5 13 11 12 22 23 18 13 17 16 17 16 15 13 8 8 10 12 13 10 12 14 13 13 19 21 24 23 24 25 23 20 18 16 14 13 12 11 11 11 12 11 10 9 9 11
15 12 11 8 8 10 10 9 11 15 19 21 20 20 21 18 17 17 13 11 13 6 6 9 12 13 9 9 10 11 14 15 15 17 18 22 25 23 19 15 13 13 12 12 12 12 12 12 11 11 12 12 12 12
12 13 13 14 14 14 14 13 13 15 17 19 19 19 20 20 21 22 23 19 11 7 9 13 12 13 23 25 24 23 22 21 17 5 22 21 18 13 11 12 11 12 12 13 13 13 13 12 12 12 13 14 14 15
11 13 16 17 18 19 18 17 16 14 18 18 19 19 20 19 20 21 23 24 5 15 25 24 24 24 22 24 24 21 21 21 7 15 14 13 12 11 11 11 12 13 13 13 13 13 13 13 13 14 15 16 17 18
11 16 21 21 20 15 14 15 13 14 9 12 9 18 20 21 21 22 22 22 24 27 26 25 23 24 22 22 23 24 7 11 13 13 13 13 12 10 10 10 11 12 13 13 14 14 14 14 15 16 16 17 18 20
23 23 22 21 17 12 12 9 3 13 12 13 16 18 20 23 24 24 24 25 25 25 24 16 14 10 8 5 7 8 9 10 9 10 12 14 16 15 14 13 13 12 12 13 13 13 14 16 16 17 19 20 22 23
24 22 13 18 9 9 10 10 9 12 11 9 8 13 20 21 20 21 16 5 5 3 10 8 7 8 10 12 11 10 9 9 11 13 12 13 14 14 13 12 11 11 12 13 14 14 15 16 18 20 21 22 23 23
20 13 16 9 8 17 19 8 9 11 10 11 10 8 5 18 20 17 13 9 7 10 14 7 7 9 14 18 18 18 11 14 15 13 13 12 11 11 11 11 10 11 11 11 12 14 15 17 18 20 20 21 21 22
18 18 13 11 13 14 21 7 8 9 10 10 10 11 14 20 25 28 13 10 28 23 23 24 23 20 21 21 21 18 16 15 11 11 11 11 11 10 10 10 10 10 11 11 12 12 14 16 18 19 19 20 21 22
19 16 15 14 15 16 18 15 5 6 12 14 14 16 17 19 21 25 27 28 29 28 23 24 2 5 16 12 12 12 13 12 11 11 11 11 11 11 11 10 10 10 11 11 12 13 14 16 17 17 19 19 19 21
13 16 15 17 17 17 16 15 16 12 10 18 20 19 18 19 21 22 24 26 27 25 23 20 13 6 7 9 14 13 12 10 10 9 10 11 10 10 10 10 11 11 11 11 12 13 14 15 16 17 18 18 20 20
14 15 15 16 16 16 18 17 17 17 19 22 23 21 20 19 21 21 22 22 25 26 25 20 20 21 18 11 9 10 9 10 9 9 9 10 10 10 10 11 11 11 11 12 12 13 14 15 16 17 18 19 19 19
19 17 15 14 14 15 16 18 17 18 18 18 21 18 18 21 23 23 22 21 24 26 18 14 13 9 8 8 8 8 9 9 8 7 8 9 9 9 9 9 9 10 10 11 12 13 14 15 16 17 18 18 18 18
23 19 19 20 17 16 16 17 17 19 20 19 18 18 19 22 24 22 20 19 19 19 12 4 5 8 6 4 6 7 8 8 7 8 10 10 11 11 11 10 10 11 11 12 13 13 14 14 15 16 17 17 17 17
23 19 20 17 18 17 16 16 18 20 20 19 15 20 20 21 21 19 18 17 16 14 11 9 6 4 5 6 7 8 8 9 10 11 12 12 13 13 14 14 14 14 14 14 14 14 14 14 15 15 16 16 17 17
24 20 18 20 20 20 20 18 19 20 16 16 19 21 21 19 18 18 17 16 13 9 7 5 5 5 5 5 6 6 9 9 9 9 8 9 10 11 13 14 14 15 15 16 17 16 16 15 15 15 16 16 17 16
24 20 22 21 23 24 22 19 19 17 17 18 18 18 19 19 18 16 14 12 11 10 7 4 4 5 5 5 5 6 6 7 7 8 8 8 9 11 12 13 14 15 15 16 17 17 18 18 18 17 17 17 17 17
22 22 24 24 25 24 22 20 19 19 19 18 18 20 20 18 17 16 13 11 9 6 3 2 3 4 5 5 6 7 7 6 8 10 11 11 12 12 13 13 14 15 16 16 16 16 17 17 17 17 17 17 17 16
25 27 27 28 26 22 21 23 22 22 21 20 20 19 19 20 21 16 13 8 6 5 2 3 2 2 4 5 6 6 6 8 8 10 11 12 12 13 14 14 15 15 16 16 17 17 17 17 17 18 18 17 17 17
23 24 24 24 24 25 23 23 23 23 23 23 22 21 21 21 21 17 14 12 11 8 4 2 4 3 4 4 5 6 7 7 8 9 11 12 13 14 14 14 15 16 16 17 17 17 18 18 18 18 18 18 17 17
Wind_Direction
296 292 286 282 274 268 262 258 253 247 238 235 236 239 236 234 235 242 251 247 249 251 253 256 256 257 260 263 257 265 267 263 260 260 264 270 269 265 270 269 268 264 268 264 266 267 270 280 278 268 284 294 298 300
285 282 280 264 261 269 263 254 248 245 246 242 240 238 236 234 234 234 256 244 255 257 262 269 266 266 269 275 269 266 266 268 267 267 263 267 270 271 270 270 269 266 264 268 268 271 274 285 280 282 282 286 292 296
284 277 270 252 247 247 251 258 256 247 244 243 243 242 242 240 240 235 252 242 253 261 263 262 261 268 267 271 280 268 271 274 277 284 275 275 274 267 266 269 272 272 271 269 274 270 273 283 283 287 287 288 290 294
285 273 264 259 254 251 249 246 251 250 248 248 247 245 243 241 240 237 248 240 249 267 262 266 275 270 272 264 264 268 274 278 281 284 279 275 272 285 277 278 273 276 280 273 275 277 282 283 282 283 286 287 288 291
284 273 258 243 232 236 248 251 250 248 247 249 250 247 241 231 229 243 250 241 252 261 268 271 274 274 274 265 264 265 270 272 274 274 274 272 279 282 281 282 278 282 279 278 282 287 280 286 292 287 285 284 286 289
286 275 260 237 225 229 259 269 265 258 255 256 254 248 221 207 198 240 259 247 248 261 272 270 279 277 274 273 269 266 267 271 274 276 276 278 280 279 278 276 279 278 279 280 283 288 292 293 291 289 289 289 289 292
314 295 264 275 268 208 266 276 282 284 228 252 243 211 183 182 211 243 267 258 218 258 271 275 275 281 280 275 274 273 271 273 273 276 275 276 277 276 279 274 278 278 279 280 281 283 285 286 286 290 285 286 292 294
356 360 17 55 84 93 36 299 287 269 242 195 175 157 158 154 199 257 285 148 160 277 282 274 278 282 277 280 280 278 278 277 277 277 276 275 278 275 276 276 278 279 279 280 280 280 280 284 286 286 289 289 290 292
18 25 39 59 73 75 64 48 76 96 104 114 114 114 138 257 269 254 118 166 268 282 273 278 279 277 292 288 288 286 284 282 283 281 280 277 274 272 276 278 279 283 279 282 284 281 282 282 285 285 286 289 289 291
20 28 38 52 71 86 87 77 90 94 100 104 111 41 290 250 119 176 253 264 280 283 279 284 294 291 294 295 294 296 293 287 285 283 291 280 278 279 281 281 280 281 284 286 283 282 285 285 288 289 288 291 290 292
24 35 48 57 65 75 86 91 91 95 88 237 276 298 125 201 219 259 280 279 289 286 280 284 281 290 300 300 300 308 300 299 290 290 288 291 290 298 306 299 295 297 296 293 291 291 292 292 290 290 292 294 294 296
29 39 47 53 57 66 82 94 196 219 217 208 134 196 223 251 272 282 281 283 283 279 291 291 296 302 314 316 309 314 307 313 298 316 300 296 303 310 313 311 309 305 301 299 302 297 302 302 302 300 299 300 306 313
21 25 22 26 58 75 51 51 65 79 170 215 227 253 272 285 286 277 269 271 274 286 288 310 318 317 314 306 308 315 312 312 327 312 305 304 315 316 315 316 317 318 317 315 316 325 328 329 333 333 321 333 332 335
355 8 8 16 65 61 276 242 258 210 243 238 177 169 231 272 259 266 267 276 277 283 303 319 323 315 307 292 308 311 318 326 309 305 307 309 315 322 329 333 335 336 342 348 353 357 1 4 3 0 6 358 349 338
354 329 328 309 272 251 237 249 247 201 178 161 168 170 179 233 245 250 284 293 282 311 294 294 291 299 323 326 325 333 318 320 326 330 319 308 298 304 333 349 356 356 352 351 4 18 30 32 25 10 355 349 349 345
333 42 329 285 270 270 262 260 246 217 178 168 177 175 174 181 192 197 195 219 281 285 288 290 307 215 201 228 216 204 213 208 205 173 316 319 340 9 23 16 26 31 36 33 34 33 27 20 16 9 5 359 354 349
26 64 297 291 282 277 281 290 280 305 202 169 175 189 176 194 196 188 187 193 48 133 196 206 199 206 237 216 210 197 205 222 18 347 344 5 14 28 33 40 44 44 37 33 33 24 20 20 20 8 359 354 351 346
9 295 275 281 294 322 324 311 335 330 35 335 9 197 201 218 217 211 198 175 181 201 207 211 233 201 199 204 214 234 35 2 359 6 9 10 14 23 35 42 42 46 48 44 43 39 32 24 12 3 360 353 349 343
266 257 250 260 273 343 120 114 18 154 144 329 309 300 283 260 235 234 217 199 213 215 219 187 166 142 143 25 20 15 16 12 26 32 55 75 87 80 73 63 53 46 46 44 36 21 12 5 2 357 351 346 341 338
257 276 336 291 82 90 97 101 359 150 151 128 4 326 301 294 287 275 283 334 102 64 135 124 107 26 16 347 345 355 18 41 65 78 65 68 80 77 73 66 55 50 33 22 15 14 11 4 358 353 349 346 345 344
293 327 312 345 349 288 282 63 100 120 118 146 129 122 61 296 278 277 284 295 140 140 157 129 115 358 322 276 257 256 84 106 107 97 96 86 82 71 60 49 44 38 39 37 29 20 13 8 3 359 358 357 356 354
289 296 315 329 312 307 279 13 33 58 110 127 133 146 164 184 206 214 281 224 208 193 195 196 187 171 193 198 173 140 122 114 77 64 63 76 82 82 76 68 64 57 49 44 39 33 25 16 6 5 7 6 1 360
286 291 294 301 296 296 295 297 31 58 138 158 146 185 192 192 193 197 207 211 216 211 189 191 142 211 159 125 109 109 115 109 99 92 86 78 77 70 71 72 64 63 54 44 35 35 28 19 15 18 13 12 10 7
293 286 291 287 281 289 294 292 288 314 334 214 210 215 213 208 199 205 209 210 205 190 173 163 136 96 331 104 136 131 125 112 95 79 81 80 71 73 71 66 60 53 50 50 42 33 28 24 22 20 18 15 12 10
283 285 291 288 286 285 279 282 281 284 276 253 239 242 237 238 218 217 213 214 192 184 175 157 161 168 161 141 124 126 118 121 111 96 86 82 62 58 55 60 57 55 59 50 40 32 26 25 23 20 18 17 16 16
274 280 285 286 284 283 280 277 276 275 277 275 265 271 265 251 233 218 231 244 238 230 163 156 151 139 133 128 124 119 122 109 97 76 66 78 75 71 73 70 59 51 61 49 43 31 27 25 23 22 20 21 23 23
269 275 275 272 276 283 283 281 277 273 270 272 274 269 268 259 241 252 270 272 268 272 305 77 115 134 121 79 76 64 75 67 53 45 60 55 52 59 70 64 62 56 63 50 41 38 31 29 28 26 26 28 28 28
269 271 267 266 270 274 281 279 276 271 270 273 276 265 270 267 264 275 281 291 294 305 316 318 335 19 72 88 83 80 56 53 56 57 52 38 36 41 45 46 51 57 52 47 42 38 35 33 33 33 33 33 33 34
264 266 264 263 265 269 272 275 276 274 281 276 271 266 270 279 287 291 293 299 309 330 329 338 352 23 41 47 44 46 79 88 83 81 70 59 56 43 50 56 55 52 50 44 38 38 39 42 42 40 41 40 40 41
260 258 261 261 262 262 269 271 278 282 280 281 283 284 284 286 292 299 303 309 307 310 324 4 55 82 87 88 72 56 41 42 50 61 66 63 59 71 70 64 59 54 51 45 43 45 46 45 45 45 44 45 45 45
262 257 260 260 262 264 268 273 275 277 278 280 283 278 279 288 292 295 297 301 311 328 349 4 27 61 82 81 93 93 83 53 35 30 36 58 72 77 74 67 61 56 54 52 52 52 48 46 47 48 48 48 49 51
255 254 255 256 261 266 267 266 267 269 272 272 275 281 281 280 278 289 292 298 303 293 299 79 34 47 62 58 59 16 42 74 63 51 57 66 72 75 72 65 60 58 58 57 55 54 51 51 52 52 53 53 55 58
257 255 255 256 258 257 260 261 262 265 266 268 271 273 275 274 274 285 292 284 283 279 277 305 330 39 62 52 40 18 43 45 46 50 63 71 78 76 70 65 62 62 63 60 57 55 55 57 57 56 56 57 61 66